User: anonymous   Login
Location: Pella
(41.4080°N, 92.9160°W)
Time: 07:47:35
(UTC-05:00)
Language:

Iridium 91 - Orbit

View from above orbital plane
View from above orbital plane
View from above satellite
View from above satellite

Ground track
Ground track

The orbit data is extracted from the following two-line orbital elements,

1 27372U 02005A   15181.54932338  .00000160  00000-0  50069-4 0  9992
2 27372 086.3978 227.6843 0002751 089.4469 071.5607 14.34220329708765
Epoch (UTC): 30 June 2015 13:11:01
Eccentricity: 0.0002751
inclination: 86.3978°
perigee height: 775 km
apogee height: 779 km
right ascension of ascending node: 227.6843°
argument of perigee: 89.4469°
revolutions per day: 14.34220329
mean anomaly at epoch: 71.5607°
orbit number at epoch: 70876

The dashed part of the orbit path shows where the satellite is in the earth's shadow,  

DLR